Home Calendar Results Contacts
 



2016 January Freeze 10K Series
Otsiningo Park, Binghamton, NY

   Freeze Number 1    Freeze Number 2    Freeze Number 3    Freeze Number 4   

Please contact Webmaster with any corrections or additions.

Series Awards

Awards were based on the fastest times over the series, and runners needed to finish at least 3 of the races to be eligible.

Overall Male:, 1st- Steve Esposito , 2nd- Jordan Varano , 3rd - Dan Toye . Overall Female: , 1st- Casondra Hamilton , 2nd- Logan Robinson , 3rd- Emily Kowalczyk . Overall Male Masters: Chris Cowden , Overall Female Masters: Linda Harding and Teri Olcott (tie).

Results for January 23

Conditions: 21 degrees, cloudy

  Place Name                  Time4   Pace  PerF Bib   Es4     
  ===== ===================== ======= ===== ==== ===== ==== 
      1 Steve Esposito          34:40  5:35  784   333      
      2 Jordan Varano           35:51  5:47  758   225      
      3 Jack Hillenbrand        36:38  5:54  742   223      
      4 Andrew Norton           39:22  6:21  690   233      
      5 Casondra Hamilton       40:25  6:31  759   272      
      6 Chris Cowden            40:26  6:31  672   329      
      7 Eran Crockett           41:22  6:40  657   382      
      8 Logan Nagle             41:24  6:40  656   462      
      9 Dan Toye                41:36  6:42  653   213      
     10 Tom Hanselman           41:45  6:44  651   298      
     11 Michael Thompson        41:59  6:46  647   224      
     12 Tim O'Neill             42:18  6:49  642   242      
     13 Fred Malloy             42:24  6:50  641   398      
     14 Christopher Pilotti     42:34  6:52  638   458      
     15 Logan Robinson          42:43  6:53  719   396      
     16 Emily Kowalczyk         42:48  6:54  717   221      
     17 Bob Stocks              42:59  6:56  632   281      
     18 Doug Stoner             43:32  7:01  624   476      
     19 Tom Feheley             43:35  7:01  624   446      
     20 Ashley Shager           43:39  7:02  703   247      
     21 Willtam Crandall        43:51  7:04  620   335      
     22 William Lewis           44:02  7:06  617   445      
     23 Jake Bigelow            44:48  7:13  607   499      
     24 Glenn Hamilton          45:01  7:15  604   352      
     25 Anthony Vinca           45:06  7:16  603   280      
     26 Emily Piza-Taylor       45:17  7:18  678   494      
     27 Michael Murphy          45:18  7:18  600    MM      
     28 Nate Muleahy            45:18  7:18  600   450      
     29 Jeff L'Amoreaux         45:45  7:22  594   492      
     30 Donna Joseph            46:08  7:26  589   491      
     31 A J De Dio              46:21  7:28  586   229      
     32 Jim Mitchell            46:22  7:28  586   275      
     33 Chuck Hein              46:45  7:32  581   474      
     34 Jonathan Barton         46:46  7:32  581   431      
     35 Graham Upton            46:48  7:32  581   447      
     36 Michael Stone           46:51  7:33  580   434      
     37 Sandra Randell          46:58  7:34  654   477      
     38 Will Mannel             47:07  7:35  577   300      
     39 Monica Salva            47:10  7:36  651   374      
     40 Jody Weidner            47:13  7:36  576   342      
     41 Tilghman Smith          47:31  7:39  572   253      
     42 Kenneth Burt            47:37  7:40  571   349      
     43 Jillian Hendzlik        47:48  7:42  642   410      
     44 Dennis Uhlig            47:52  7:43  568   357      
     45 Chris Welch             47:54  7:43  567   316      
     46 Daniel Davies           47:58  7:44  567   238      
     47 Brittany Perkins        48:04  7:45  639   315      
     48 Kevin Tripp             48:30  7:49  560   390      
     49 Linda Reynolds          48:36  7:50  632   237      
     50 Jessica Cross           48:44  7:51  630   400      
     51 Michael Schapiro        48:46  7:51  557   292      
     52 Dave Talcott            49:20  7:57  551   468      
     53 Keith Heron             49:21  7:57  551   402      
     54 Ella Daniels            49:40  8:00  618   212      
     55 Thomas Kelley           49:49  8:02  545   452      
     56 David Losee             49:58  8:03  544   391      
     57 Alan Hess               50:01  8:03  543   234      
     58 Dale Tifft              50:11  8:05  542   278      
     59 Scott Lavare            50:14  8:06  541   262      
     60 Richard Defee           50:23  8:07  539   439      
     61 Josh Demarree           50:40  8:10  536   422      
     62 Peter Baveile           50:42  8:10  536   363      
     63 Laura Hartman           50:43  8:10  605   337      
     64 Charlie Leonard         50:47  8:11  535   336      
     65 Vanessa Fitts           51:02  8:13  601   440      
     66 Rachel Parsons          51:13  8:15  599   428      
     67 John Evangelista        51:16  8:16  530   350      
     68 Teri Olcott             51:19  8:16  598   276      
     69 Linda Harding           51:24  8:17  597   360      
     70 Paula Bustos            51:25  8:17  597   436      
     71 Delana Spaulding        51:28  8:17  596   442      
     72 Kelley Hamlin           51:39  8:19  594   252      
     73 Kathy Purtell           51:50  8:21  592   328      
     74 Derey Blank             52:16  8:25  520   265      
     75 Christopher Kamp        52:20  8:26  519   257      
     76 Nathan Vonwhig          52:24  8:26  519   399      
     77 Kevin Pasterchik        52:57  8:32  513    13      
     78 Mike Welch              53:18  8:35  510   478      
     79 Rebecca Miller          53:22  8:36  575   385      
     80 Joel Peters             53:26  8:36  509   348      
     81 Wendy Buttner           53:27  8:37  574   418      
     82 Morgan Baker            53:35  8:38  573   389      
     83 Steve Ferrante          53:45  8:40  506   393      
     84 Everett Vail            54:00  8:42  503   375      
     85 Chrisoff Vandroff       54:07  8:43  502   407      
     86 Henry Jason             54:09  8:43  502   490      
     87 Bob Beavan              54:16  8:44  501   341      
     88 Rachel Stahl            54:25  8:46  564   273      
     89 Glenn Whittington       54:47  8:49  496   266      
     90 Diana Bean              55:03  8:52  558   308      
     91 Fred Trost              55:05  8:52  493   483      
     92 Susan Schultz           55:09  8:53  557   232      
     93 Dan Bartschi            55:11  8:53  492   270      
     94 Meghan Mitrus           55:12  8:54  556   217      
     95 Jamie Shave             55:21  8:55  491   222      
     96 Allison Backer          55:49  8:59  487   313      
     97 Amy Derkowski           56:29  9:06  543   263      
     98 Curtis Boyd             56:32  9:06  481   415      
     99 Kellie Tompkins         56:33  9:07  481   239      
    100 Marcy Salva             56:41  9:08  542   372      
    101 Randy Templeman         56:51  9:09  478   465      
    102 Dawn Devita             58:16  9:23  527   322      
    103 Barbara Small           58:26  9:25  525   220      
    104 Sarah Dobler            59:23  9:34  517   218      
    105 Tbd Tbd                 59:47  9:38  455   277      
    106 Julie Jeonard         1:00:08  9:41  510   279      
    107 Carolyn Hall          1:00:17  9:43  509   456      
    108 Lucky Williams        1:00:24  9:44  508   364      
    109 Heather Ludwig        1:00:26  9:44  508   287      
    110 Elizabeth Gillet      1:01:03  9:50  503   437      
    111 Carol Hamlin          1:01:30  9:54  499   338      
    112 Alyssa Leonard        1:01:59  9:59  495   288      
    113 Tiffany Brady         1:02:01  9:59  495   486      
    114 Randy Decker          1:02:19 10:02  436   249      
    115 Mark Hendley          1:02:21 10:03  436   488      
    116 Vincent Colombo       1:03:21 10:12  429   317      
    117 Juan Salinas          1:03:29 10:13  428   463      
    118 Unk Unk               1:05:26 10:32  415   448    Y 
    119 Julie Drozdowski      1:05:29 10:33  469   384      
    120 Ed Desantis           1:05:32 10:33  415   260      
    121 Beverly Atwood        1:06:40 10:44  460   426    Y 
    122 Michelle Hobbs        1:11:46 11:33  428   417    Y 
    123 Melissa Felder        1:12:33 11:41  423   354    Y 
    124 Sharon Dodd           1:13:39 11:52  417   251    Y 
    125 Anastasia Cochardo    1:13:40 11:52  417   299    Y 
    126 Jennifer Jones        1:14:00 11:55  415   321    Y 
    127 Stephen Spero         1:14:53 12:04  363   309    Y 
    128 Yvonne Newell         1:16:41 12:21  400   256    Y 
    129 Debbie Bates          1:17:40 12:30  395   219    Y 
    130 Anthony Lotempio      1:23:30 13:27  325   401    Y 
    131 Diane Stahl           1:25:40 13:48  358   406    Y 

Results for January 16

Conditions: 37 degrees, cloudy

  Place Name                  Time3   Pace  PerF Bib   Es3     
  ===== ===================== ======= ===== ==== ===== ==== 
      1 Steve Esposito          34:22  5:32  791   333      
      2 Katie O'Regan           37:39  6:04  815   469      
      3 John Evangelista        38:26  6:12  707   350      
      4 Dan Toye                38:50  6:15  700   213      
      5 Chris Cowden            39:18  6:20  691   329      
      6 Eran Crockett           39:37  6:23  686   382      
      7 Ryan Heinlein           39:42  6:24  685   264      
      8 Andrew Norton           40:03  6:27  679   233      
      9 Casondra Hamilton       41:36  6:42  738   272      
     10 Courtney Varano         41:38  6:43  737   484      
     11 Logan Nagle             42:06  6:47  645   462      
     12 Tom Hanselman           42:11  6:48  644   298      
     13 Doug Stoner             42:13  6:48  644   476      
     14 Tom Ryan                42:47  6:54  635   327      
     15 Fred Malloy             42:51  6:54  634   398      
     16 Michael Thompson        42:55  6:55  633   224      
     17 Emily Kowalczyk         43:04  6:56  713   221      
     18 Tim Oneill              43:11  6:57  629   242      
     19 Rachel Johnson          43:37  7:02  704   241      
     20 Willtam Crandall        44:06  7:06  616   335      
     21 Ashley Shager           44:07  7:06  696   247      
     22 Jason Riesbeck          44:34  7:11  610   294      
     23 Kylee O'Hara            44:47  7:13  685   340      
     24 William Farrante        45:02  7:15  603   394      
     25 William Lewis           45:07  7:16  602   445      
     26 Clay Himmelberger       45:12  7:17  601   381      
     27 Nate Muleahy            45:30  7:20  597   450      
     28 Will Mannel             46:39  7:31  583   300      
     29 Christopher Allin       46:41  7:31  582   479      
     30 Michael Stone           46:45  7:32  581   434      
     31 Casy Puedum             46:51  7:33  580   455      
     32 Tom Byers               46:56  7:34  579   284      
     33 Sandra Randell          46:58  7:34  654   477      
     34 Kevein Curry            47:15  7:37  575   387      
     35 Robert Seltzer          47:17  7:37  575   323      
     36 Chuck Hein              47:23  7:38  574   474      
     37 Kevin Tripp             47:36  7:40  571   390      
     38 Tbd Tbd                 47:54  7:43  567   319      
     39 Kenneth Burt            47:58  7:44  567   349      
     40 Michael Murphy          48:20  7:47  562    MM      
     41 Graham Upton            48:23  7:48  562   447      
     42 Derey Blank             48:44  7:51  558   265      
     43 Ella Daniels            48:54  7:53  628   212      
     44 Monica Salva            49:02  7:54  626   374      
     45 Michael Schapiro        49:06  7:55  553   292      
     46 David Losee             49:15  7:56  552   391      
     47 Chris Welch             49:18  7:57  551   316      
     48 Brittany Perkins        49:38  8:00  618   315      
     49 Jeffrey Horowitz        49:39  8:00  547   244      
     50 Laura Hartman           49:56  8:03  615   337      
     51 Scott Buchanan          50:03  8:04  543   353      
     52 Keith Heron             50:11  8:05  542   402      
     53 Thomas Kelley           50:15  8:06  541   452      
     54 Leslie Buchanan         50:17  8:06  610   351      
     55 Teri Olcott             50:22  8:07  609   276      
     56 Dale Tifft              50:24  8:07  539   278      
     57 Todd Kopalek            50:30  8:08  538   359      
     58 Linda Harding           50:31  8:08  608   360      
     59 Jillian Hendzlik        50:45  8:11  605   410      
     60 William McGovern        50:52  8:12  534   433      
     61 Dave Talcott            50:58  8:13  533   468      
     62 Greg Amend              51:14  8:15  530   303      
     63 Dale Fox                51:20  8:16  529   254      
     64 Dennis Uhlig            51:21  8:16  529   357      
     65 Grant Briggs            51:29  8:18  528   330      
     66 Charlie Leonard         51:36  8:19  527   336      
     67 Jason Dodson            51:46  8:20  525   366      
     68 Glenn Whittington       51:56  8:22  523   266      
     69 Christopher Kamp        51:58  8:22  523   257      
     70 Alan Hess               52:00  8:23  523   234      
     71 Wendy Buttner           52:27  8:27  585   418      
     72 Paula Bustos            52:41  8:29  583   436      
     73 Kevin Pasterchik        52:42  8:29  516    13      
     74 Nancy Werthmuller       53:06  8:33  578   473      
     75 Kathy Purtell           53:33  8:38  573   328      
     76 Bob Beavan              53:39  8:39  507   341      
     77 Diana Bean              54:00  8:42  568   308      
     78 Mike Welch              54:13  8:44  501   478      
     79 Rachel Stahl            54:23  8:46  564   273      
     80 Dan Dupree              54:34  8:47  498   285      
     81 Bob Crounse             54:39  8:48  497   487      
     82 Joe Watson              54:41  8:49  497   471      
     83 Steve Ferrante          54:43  8:49  497   393      
     84 Jonathan Barton         54:48  8:50  496   431      
     85 Meghan Mitrus           54:50  8:50  560   217      
     86 Joseph Reynolds         54:56  8:51  495   318      
     87 Dan Bartschi            55:28  8:56  490   270      
     88 Brittney Johnson        55:33  8:57  553   361      
     89 Joel Peters             55:49  8:59  487   348      
     90 Rebecca Miller          55:58  9:01  548   385         
     91 Amy Derkowski           56:18  9:04  545   263      
     92 Jamie Shave             56:20  9:04  482   222      
     93 Allison Backer          56:24  9:05  482   313      
     94 Marcy Salva             56:27  9:06  544   372      
     95 Ed Desantis             58:11  9:22  467   260      
     96 Randy Templeman         58:13  9:23  467   465      
     97 Dawn Devita             58:24  9:24  526   322      
     98 Jessica Clement         58:39  9:27  523   443      
     99 Paul Darsky             59:05  9:31  460   324      
    100 Karen Clarke            59:22  9:34  517   373      
    101 Katie Searles           59:27  9:35  516   472      
    102 Randy Decker            59:28  9:35  457   249      
    103 Richard Walburger       59:40  9:37  455   395      
    104 Kellie Tompkins       1:00:03  9:40  511   240      
    105 Tbd Tbd               1:00:04  9:40  452   239      
    106 Meghan Nelsen         1:00:18  9:43  509   291    Y 
    107 Carolyn Hall          1:00:24  9:44  508   456      
    108 Brent Rice            1:00:39  9:46  448   365      
    109 Diane Barton          1:01:01  9:50  503   346      
    110 Julie Jeonard         1:02:04 10:00  495   279      
    111 Lucky Williams        1:02:06 10:00  494   364      
    112 Harland Bigelow       1:02:08 10:00  437   403      
    113 Alyssa Leonard        1:02:16 10:02  493   288      
    114 Tiffany Brady         1:02:52 10:08  488   486      
    115 Michelle Groshong-But 1:03:15 10:11  485   261      
    116 Juan Salinas          1:03:20 10:12  429   463      
    117 Elizabeth Gillet      1:03:21 10:12  485   437      
    118 Carol Hamlin          1:03:40 10:15  482   338      
    119 Vincent Colombo       1:03:54 10:18  425   317      
    120 Abram Parsons         1:04:12 10:20  423   429    Y 
    121 Rachel Parsons        1:04:13 10:21  478   428    Y 
    122 Amy Stewart           1:04:24 10:22  477   425      
    123 Brooke Malloy         1:04:49 10:26  474   481      
    124 Mark Norman           1:04:49 10:26  419   482      
    125 Beverly Atwood        1:05:35 10:34  468   426    Y 
    126 Midale Thomson        1:06:19 10:41  410   296    Y 
    127 Jackie Evans          1:06:20 10:41  463   295    Y 
    128 Deborah Kessler       1:06:36 10:44  461   302    Y 
    129 Richard Thomson       1:06:39 10:44  408   470    Y 
    130 Caleb Dorwart         1:08:21 11:00  398   371      
    131 Tonie Liddle          1:09:43 11:14  440   331    Y 
    132 Anastasia Cochardo    1:09:49 11:15  440   299    Y 
    133 Unk Unk               1:10:16 11:19  387   448    Y 
    134 Denise Bentley        1:10:21 11:20  436   485      
    135 Michael Feeney        1:10:31 11:21  385   332    Y 
    136 Sharon Dodd           1:10:50 11:24  433   251    Y 
    137 Kimberly Frechen      1:10:52 11:25  433   377      
    138 Tara Feathers         1:10:52 11:25  433   376      
    139 Rebecca Dupree        1:11:19 11:29  430   286      
    140 Jillian Harrington    1:11:21 11:29  430   412    Y 
    141 Christina Abbey       1:14:11 11:57  414   466    Y 
    142 Jennifer Jones        1:16:05 12:15  403   321    Y 
    143 Melissa Felder        1:16:46 12:22  400   354    Y 
    144 Stephen Spero         1:17:37 12:30  350   309    Y 
    145 Anthony Lotempio      1:26:41 13:58  313   401    Y 
    146 Carolyn Hinman        1:26:53 13:59  353   255    Y 
    147 Yvonne Newell         1:27:52 14:09  349   256      
    148 Bill Ondreyko         1:27:52 14:09  309   215      
    149 Karren Bee-Donohoe    1:29:09 14:21  344   423    Y 
    150 John Thompson         1:39:00 15:56  274   343      
    151 Patricia Coveny       2:01:18 19:32  253   345      

Results for January 9

Conditions: 39 degrees, cloudy

Updated 1/17/2016
  Place Name                  Time2   Pace  PerF Bib   Es2     
  ===== ===================== ======= ===== ==== ===== ==== 
      1 Steve Esposito          35:12  5:40  772   333      
      2 Jordan Varano           35:49  5:46  759   225      
      3 Vincent Puteino         36:17  5:51  749   211      
      4 Dan Toye                39:07  6:18  695   213      
      5 Chris Cowden            39:30  6:22  688   329      
      6 Eran Crockett           39:39  6:23  685   382      
      7 Thomas Mullins          40:08  6:28  677   435      
      8 Jack Kuhn               40:19  6:30  674   451      
      9 Tom Ryan                40:54  6:35  664   327      
     10 Casondra Hamilton       41:13  6:38  745   272      
     11 Andrew Norton           41:25  6:40  656   233      
     12 Abe Nichols             41:26  6:41  656   461      
     13 Brian Cummins           41:45  6:44  651   430      
     14 Ryan Heinlein           42:27  6:50  640   264      
     15 Tim Oneill              42:36  6:52  638   242      
     16 Bob Stocks              42:42  6:53  636   281      
     17 Todd Votapka            42:49  6:54  635   216      
     18 Logan Nagle             42:52  6:54  634   462      
     19 Christopher Pilotti     43:28  7:00  625   458      
     20 Fred Malloy             43:35  7:01  624   398      
     21 Tom Feheley             43:37  7:02  623   446      
     22 Logan Robinson          43:45  7:03  702   396      
     23 Matt Derganovich        43:59  7:05  618   438      
     24 Curtis Boyd             44:01  7:06  617   415      
     25 Kylee O'Hara            44:02  7:06  697   340      
     26 William Farrante        44:05  7:06  616   394      
     27 Rachel Johnson          44:08  7:07  696   241      
     28 Derek Schreiber         44:45  7:13  607   367      
     29 Issac Clark             44:47  7:13  607   307      
     30 Anthony Vinca           44:49  7:13  606   280      
     31 Harry Backer            44:53  7:14  605   432      
     32 Shelly Nagle            44:59  7:15  682   427      
     33 Aj Dedio                45:30  7:20  597   229      
     34 Heather McNeil          45:57  7:24  668   236      
     35 Jason Riesbeck          46:07  7:26  589   294      
     36 William Lewis           46:07  7:26  589   445      
     37 Glenn Hamilton          46:36  7:30  583   352      
     38 Sara Korba              46:36  7:30  659   267      
     39 Tbd Tbd                 46:37  7:31  583   488      
     40 Michael Stone           46:39  7:31  583   434      
     41 Rachel Murphy           46:43  7:32  657   449      
     42 Shari Nichols           46:50  7:33  655   460      
     43 Will Mannel             46:58  7:34  579   300      
     44 Jeffrey Horowitz        47:00  7:34  578   244      
     45 Nate Muleahy            47:18  7:37  575   450      
     46 Robert Seltzer          47:34  7:40  571   323      
     47 Jody Weidner            47:36  7:40  571   342      
     48 Catherine Farrell       47:44  7:41  643   457      
     49 Daniel Davies           47:45  7:42  569   238      
     50 Kevin Tripp             47:51  7:43  568   390      
     51 Tom Byers               48:00  7:44  566   284      
     52 Kevein Curry            48:06  7:45  565   387      
     53 Casy Puedum             48:07  7:45  565   455      
     54 Ella Daniels            48:07  7:45  638   212      
     55 Emily Fox               48:10  7:46  637   414      
     56 Dennis Uhlig            48:27  7:48  561   357      
     57 Chris Welch             48:30  7:49  560   316      
     58 Jessica Cross           48:43  7:51  630   400      
     59 Paul McMahon            48:44  7:51  558   230      
     60 Graham Upton            48:46  7:51  557   447      
     61 Monica Salva            48:52  7:52  628   374      
     62 Kenneth Burt            48:55  7:53  556   349      
     63 Vanessa Fitts           49:19  7:57  622   440      
     64 Derey Blank             49:31  7:59  549   265      
     65 Nathan Vonwhig          49:46  8:01  546   399      
     66 Jenifer Reis            50:07  8:04  612   228      
     67 Jonathan Barton         50:12  8:05  541   431      
     68 Jillian Hendzlik        50:33  8:09  607   410      
     69 Grant Briggs            50:34  8:09  537   330      
     70 Josh Demarree           50:35  8:09  537   422      
     71 Linda Harding           50:40  8:10  606   360      
     72 Richard Defee           50:40  8:10  536   439      
     73 Teri Olcott             50:46  8:11  605   276      
     74 Alan Hess               50:47  8:11  535   234      
     75 Glenn Whittington       50:54  8:12  534   266      
     76 Paula Bustos            50:55  8:12  603   436      
     77 Keith Heron             50:58  8:13  533   402      
     78 Michael Schapiro        51:09  8:14  531   292      
     79 Todd Kopalek            51:19  8:16  530   359      
     80 Delana Spaulding        51:31  8:18  596   442      
     81 Anne Seppersaud         51:31  8:18  596   362      
     82 William McGovern        51:49  8:21  524   433      
     83 Terrie Holbert          51:51  8:21  592   404    Y 
     84 Laura Hartman           52:09  8:24  589   337      
     85 Kellie Tompkins         52:09  8:24  589   240      
     86 Christopher Kamp        52:10  8:24  521   257      
     87 David Losee             52:11  8:24  521   391      
     88 Jennifer Fancher        52:20  8:26  587   268      
     89 Rebecca Miller          52:47  8:30  582   385      
     90 Patrick Joyce           52:47  8:30  515   464      
     91 Mark Fish               52:49  8:30  515   453      
     92 Thomas Kelley           53:10  8:34  511   452      
     93 Kevin Pasterchik        53:21  8:36  509    13      
     94 Wendy Buttner           53:24  8:36  575   418      
     95 Tbd Tbd                 53:36  8:38  507   239      
     96 Brittany Perkins        53:41  8:39  572   315      
     97 Morgan Baker            53:44  8:39  571   389      
     98 Joel Peters             53:49  8:40  505   348      
     99 Ashkan Rahimi           54:21  8:45  500   467      
    100 Scott Robinson          54:27  8:46  564   347      
    101 Diana Bean              54:49  8:50  560   308      
    102 Kathy Purtell           55:02  8:52  558   328      
    103 Steve Ferrante          55:06  8:53  493   393      
    104 Christina Abbey         55:17  8:54  555   466      
    105 Brittney Johnson        55:24  8:55  554   361      
    106 Rachel Stahl            55:49  8:59  550   405      
    107 Justin Korba            55:49  8:59  487   293      
    108 Chrisoff Vandroff       56:14  9:03  483   407      
    109 Bob Beavan              56:17  9:04  483   341      
    110 Meghan Mitrus           56:27  9:06  544   217      
    111 Susan Schultz           56:32  9:06  543   232      
    112 Joseph Reynolds         56:48  9:09  478   318      
    113 Amy Derkowski           57:03  9:11  538   263      
    114 Marcy Salva             57:10  9:12  537   372      
    115 Ed Desantis             57:43  9:18  471   260      
    116 Dawn Devita             57:52  9:19  530   322      
    117 Karen Clarke            58:01  9:21  529   459      
    118 Kristen Reynolds        58:10  9:22  528   274      
    119 Dan Bartschi            58:14  9:23  467   270      
    120 Paul Darsky             58:36  9:26  464   324      
    121 Jamie Shave             58:42  9:27  463   222      
    122 Abby Hanselman          58:44  9:28  523   444      
    123 Ray Brooks              58:48  9:28  462   320      
    124 Meghan Nelsen           58:54  9:29  521   291      
    125 Barbara Small           58:59  9:30  520   220      
    126 Lynette Vayo            59:26  9:34  516   454      
    127 Richard Walburger       59:31  9:35  457   395      
    128 Heather Ludwig          59:40  9:37  514   287      
    129 Randy Templeman       1:00:00  9:40  453   465      
    130 Jessica Clement       1:00:09  9:41  510   443      
    131 Carolyn Hall          1:00:10  9:41  510   456      
    132 Leigh Trasco          1:00:32  9:45  449   408      
    133 Karen Gardoski        1:01:00  9:50  503   378      
    134 Julie Drozdowski      1:01:11  9:51  502   384      
    135 Alyssa Leonard        1:01:19  9:53  501   288      
    136 Dib Colwell           1:01:38  9:56  498   250      
    137 Randy Decker          1:01:45  9:57  440   249      
    138 Kris Marks            1:01:46  9:57  440   271      
    139 Patricia Coveny       1:01:47  9:57  497   345      
    140 Julie Jeonard         1:02:56 10:08  488   279      
    141 Jacqueline Vetri      1:03:16 10:11  485   248    Y 
    142 Lucky Williams        1:03:21 10:12  485   364      
    143 Elizabeth Gillet      1:03:36 10:15  483   437      
    144 Juan Salinas          1:03:38 10:15  427   463      
    145 Rachel Parsons        1:03:52 10:17  481   428    Y 
    146 Abram Parsons         1:03:55 10:18  425   429    Y 
    147 Harland Bigelow       1:03:56 10:18  425   403      
    148 Amy Stewart           1:03:56 10:18  480   425      
    149 Michele Stokstad      1:05:11 10:30  471   282      
    150 Ashley Shager         1:05:20 10:31  470   247    Y 
    151 Tbd Tbd               1:05:23 10:32  416   235      
    152 Caleb Dorwart         1:05:34 10:34  414   371      
    153 Tim Burns             1:05:57 10:37  412   413    Y 
    154 Beverly Artwood       1:06:37 10:44  461   426    Y 
    155 Jackie Evans          1:07:01 10:48  458   295    Y 
    156 William Trujillo      1:07:03 10:48  405   419    Y 
    157 Vincent Colombo       1:07:08 10:49  405   317      
    158 Midale Thomson        1:07:10 10:49  405   296    Y 
    159 Rick Crug             1:07:11 10:49  404   409      
    160 Deborah Kessler       1:08:01 10:57  451   302    Y 
    161 Tbd Tbd               1:08:20 11:00  398  UKN1      
    162 Jillian Harrington    1:08:54 11:06  445   412    Y 
    163 Alycia Jones          1:10:34 11:22  435   420    Y 
    164 Tbd Tbd               1:10:58 11:26  383  UKN2      
    165 Sharon Dodd           1:11:12 11:28  431   251    Y 
    166 Anastasia Cochardo    1:11:13 11:28  431   299    Y 
    167 Nicki Conroy          1:11:21 11:29  430   297    Y 
    168 Mary Frisbie          1:11:36 11:32  429   416    Y 
    169 Samantha Docalavich   1:11:58 11:35  427   421    Y 
    170 Michael Feeney        1:12:16 11:38  376   332    Y 
    171 Tara Feathers         1:12:34 11:41  423   376      
    172 Kimberly Frechen      1:12:36 11:42  423   377      
    173 Rebecca Dupree        1:13:06 11:46  420   286    Y 
    174 Dan Dupree            1:13:14 11:48  371   285    Y 
    175 Michelle Hobbs        1:15:44 12:12  405   417    Y 
    176 Yvonne Newell         1:16:00 12:14  404   256    Y 
    177 Bill Ondreyko         1:16:16 12:17  356   215    Y 
    178 Debbie Bates          1:17:15 12:26  397   219    Y 
    179 Melissa Felder        1:17:37 12:30  395   354    Y 
    180 Kimberly Dierwechter  1:18:10 12:35  393   424    Y 
    181 Jennifer Jones        1:18:37 12:40  390   321    Y 
    182 Diane Stahl           1:19:03 12:44  388   406    Y 
    183 Stephen Spero         1:23:23 13:26  326   309    Y 
    184 Anthony Lotempio      1:26:01 13:51  316   401    Y 
    185 Carolyn Hinman        1:26:35 13:57  355   255    Y 
    186 Karren Bee-Donohoe    1:27:47 14:08  350   423    Y 
    187 John Thompson         1:40:34 16:12  270   343    Y 

Results for January 2

Conditions: 31 degrees, cloudy

Updated 01/17/2016
  Place Name                  Time1   Pace  PerF Bib   Es1     
  ===== ===================== ======= ===== ==== ===== ==== 
      1 Jarett Newby            35:20  5:42  769   392      
      2 Steve Esposito          35:34  5:44  764   333      
      3 Jordan Varano           35:38  5:45  763   225      
      4 Phil Maynard            36:36  5:54  742   358      
      5 Dan Clark               36:40  5:55  741   305      
      6 Earl Steinbreck         36:48  5:56  738   334      
      7 Shaun Horan             37:52  6:06  718    SH      
      8 Will Villano            38:23  6:11  708   356      
      9 John Evangelista        38:32  6:13  705   350      
     10 Eran Crockett           39:47  6:25  683   382      
     11 Ryan Heinlein           40:09  6:28  677   264      
     12 Dan Toye                40:12  6:29  676   213      
     13 Jacqueline Vetri        40:17  6:29  762   248      
     14 Midale Thomson          41:06  6:37  661   296      
     15 Katie Nolan             41:28  6:41  740   314      
     16 Michael Murphy          41:47  6:44  650    MM      
     17 Tom Hanselman           42:13  6:48  644   298      
     18 Casondra Hamilton       42:26  6:50  723   272      
     19 Andrew Norton           42:36  6:52  638   233      
     20 Chris Cowden            42:38  6:52  637   329      
     21 Tara Soraghan           42:42  6:53  719   344      
     22 Tom Ryan                43:00  6:56  632   327      
     23 Todd Votapka            43:04  6:56  631   216      
     24 Logan Nagle             43:08  6:57  630   243      
     25 Emily Kowalczyk         43:38  7:02  703   221      
     26 Tim Oneill              43:48  7:03  620   242      
     27 Michael Thompson        44:00  7:05  618   224      
     28 Fred Malloy             44:04  7:06  617   398      
     29 Logan Robinson          44:16  7:08  693   396      
     30 Rachel Johnson          44:24  7:09  691   241      
     31 Kylee O'Hara            44:25  7:09  691   340      
     32 Aidan Clark             44:34  7:11  610   306      
     33 Tessa Clark             44:34  7:11  610   304      
     34 Issac Clark             44:34  7:11  610   307      
     35 Anthony Vinca           44:58  7:15  604   280      
     36 Gina Kane               44:59  7:15  682   355      
     37 Jason Riesbeck          45:03  7:15  603   294      
     38 Ashley Shager           45:20  7:18  677   247      
     39 Derek Schreiber         45:32  7:20  597   367      
     40 Clay Himmelberger       45:40  7:21  595   381      
     41 Willtam Crandall        46:15  7:27  588   335      
     42 Dustin Andrus           46:22  7:28  586   383      
     43 Glenn Hamilton          46:53  7:33  580   352      
     44 Melissa Felder          46:56  7:34  654   354      
     45 Daniel Davies           47:05  7:35  577   238      
     46 Aj Dedio                47:07  7:35  577   229      
     47 Jim Mitchell            47:15  7:37  575   275      
     48 Sara Korba              47:22  7:38  648   267      
     49 Heather McNeil          47:46  7:42  643   236      
     50 Will Mannel             48:05  7:45  565   300      
     51 Brent Rice              48:08  7:45  565   365      
     52 Jody Weidner            48:15  7:46  563   342      
     53 Linda Reynolds          48:25  7:48  634   237      
     54 Monica Salva            48:45  7:51  630   374      
     55 Ella Daniels            48:58  7:53  627   212      
     56 Peter Baveile           49:26  7:58  550   363      
     57 Kevein Curry            49:31  7:59  549   387      
     58 Jon Cooley              49:45  8:01  546   289      
     59 Robert Seltzer          50:07  8:04  542   323      
     60 Kenneth Burt            50:22  8:07  540   349      
     61 Scott Lavare            50:32  8:08  538   262      
     62 Kevin Tripp             50:34  8:09  537   390      
     63 Jenifer Reis            50:37  8:09  606   228      
     64 Jessica Cross           50:44  8:10  605   400      
     65 Tilghman Smith          51:05  8:14  532   253      
     66 Chris Welch             51:12  8:15  531   316      
     67 Grant Briggs            51:14  8:15  530   330      
     68 Charlie Leonard         51:18  8:16  530   336      
     69 Everett Vail            51:26  8:17  528   375      
     70 Sale Tifft              51:27  8:17  528   278      
     71 David Losee             51:28  8:17  528   391      
     72 Laura Hartman           51:31  8:18  596   337      
     73 Scott Robinson          51:37  8:19  595   347      
     74 Derey Blank             51:46  8:20  525   265      
     75 Rachel Vesterfell       51:48  8:21  593   326      
     76 Michele Dumond          51:51  8:21  592   325      
     77 Linda Harding           51:56  8:22  591   360      
     78 Teri Olcott             52:08  8:24  589   276      
     79 John Kopalek            52:12  8:25  521   227      
     80 Leslie Buchanan         52:15  8:25  520   351      
     81 Todd Kopalek            52:17  8:25  520   359      
     82 Beth Kresge             52:20  8:26  587   380      
     83 Nathan Vonwhig          52:25  8:27  518   399      
     84 Christopher Kamp        52:34  8:28  517   257      
     85 Scott Buchanan          52:36  8:28  517   353      
     86 Dennis Uhlig            52:41  8:29  516  357A      
     87 Ryan Magill             52:42  8:29  516   397      
     88 Dale Fox                52:43  8:30  515   254      
     89 Dennis Uhlig            52:53  8:31  514  357B      
     90 Rebecca Miller          53:02  8:33  579  385A      
     91 Jason Dodson            53:14  8:35  510   366      
     92 Jennifer Fancher        53:15  8:35  576   268      
     93 Glenn Whittington       53:18  8:35  510   266      
     94 Keith Heron             53:19  8:35  510   402      
     95 Diana Bean              53:37  8:38  572   308      
     96 Alan Hess               53:50  8:40  505   234      
     97 Brittany Perkins        54:15  8:44  566   315      
     98 Brittney Johnson        54:25  8:46  564   361      
     99 Rick Chrisler           54:43  8:49  497   388      
    100 Joel Peters             55:01  8:52  494   348      
    101 Steve Ferrante          55:02  8:52  494   393      
    102 Morgan Baker            55:50  9:00  550   389      
    103 Kevin Pasterchik        55:54  9:00  486    13      
    104 Kelley Hamlin           55:56  9:01  549   252      
    105 Anne Seppersaud         56:11  9:03  546   362      
    106 Marcy Salva             56:12  9:03  546   372      
    107 Rachel Stahl            56:38  9:07  542   273      
    108 Barbara Small           56:59  9:11  539   220      
    109 Justin Korba            57:02  9:11  476   293      
    110 Amy Derkowski           57:05  9:12  538   263      
    111 Kathy Purtell           57:07  9:12  537   328      
    112 Lisa Mallery            57:14  9:13  536   312      
    113 Karen Currier           57:16  9:13  536   310      
    114 Joseph Reynolds         57:20  9:14  474   318      
    115 Jenifer Woltjen         57:23  9:15  535   368      
    116 Susan Schultz           57:26  9:15  534   232      
    117 William Farrante        57:34  9:16  472   394      
    118 Bob Beavan              57:43  9:18  471   341      
    119 Allison Backer          57:59  9:20  469   313      
    120 Jamie Shave             58:07  9:22  468   222      
    121 Dan Bartschi            58:32  9:26  464   270      
    122 Meghan Mitrus           58:40  9:27  523   217      
    123 Ed Desantis             58:58  9:30  461   260      
    124 Kristen Reynolds        58:59  9:30  520   274      
    125 Sarah Dobler            59:04  9:31  520   218      
    126 Dawn Devita             59:22  9:34  517   322      
    127 Ray Brooks            1:00:14  9:42  451   320      
    128 Karen Clarke          1:00:16  9:42  509   373      
    129 Claire Congdon        1:00:23  9:44  508   370      
    130 Heather Ludwig        1:01:05  9:50  503   287      
    131 Lawrence Lepak        1:01:20  9:53  443   369      
    132 Diane Barton          1:01:38  9:56  498   346      
    133 Richard Walburger     1:01:40  9:56  441   395      
    134 Karen Gardoski        1:02:36 10:05  490   378      
    135 Paul Darsky           1:03:15 10:11  430   324      
    136 Rose Carlini          1:03:24 10:13  484   311      
    137 Julie Drozdowski      1:03:34 10:14  483   384      
    138 Dib Colwell           1:03:36 10:15  483   250          
    139 Michelle Groshong-But 1:03:42 10:16  482   261      
    140 Alyssa Leonard        1:03:43 10:16  482   288      
    141 Randy Decker          1:03:44 10:16  426   249      
    142 Carol Hamlin          1:04:31 10:23  476   338      
    143 Julie Jeonard         1:04:32 10:24  476   279      
    144 Lucky Williams        1:04:39 10:25  475   364      
    145 Kris Marks            1:06:00 10:38  412   271      
    146 Elaine Errigo-Gilyard 1:06:17 10:41  463   379      
    147 Nathan Batalina       1:07:00 10:47  406   386      
    148 Caleb Dorwart         1:07:00 10:47  406   371      
    149 Jackie Evans          1:07:20 10:51  456   295      
    150 Deborah Kessler       1:07:21 10:51  456   302      
    151 Tammy Bonnice         1:07:22 10:51  456   269      
    152 Michele Stokstad      1:08:13 10:59  450   282      
    153 Rebecca Miller        1:08:28 11:02  448  385B      
    154 Melissa Carswell      1:09:18 11:10  443   339      
    155 Anastasia Cochardo    1:10:09 11:18  438   299      
    156 Tonie Liddle          1:10:51 11:25  433   331      
    157 Sharon Dodd           1:11:09 11:28  431   251      
    158 Vincent Colombo       1:12:18 11:39  376   317      
    159 Nicki Conroy          1:12:21 11:39  424   297      
    160 Harland Bigelow       1:12:27 11:40  375   283      
    160 Harland Bigelow       1:12:27 11:40  375   283      
    161 Tara Feathers         1:12:38 11:42  423   376      
    162 Michael Feeney        1:18:24 12:38  347   332      
    163 Kimberly Frechen      1:19:00 12:43  389   377      
    164 Stacy Reece           1:19:00 12:43  389   226      
    165 Yvonne Newell         1:19:00 12:43  389   256      
    166 Bill Ondreyko         1:19:00 12:43  344   215      
    167 Stephen Spero         1:20:34 12:58  337   309      
    168 Jennifer Jones        1:21:27 13:07  377   321      
    169 Carolyn Hinman        1:31:20 14:42  336   255      
    170 Patricia Coveny       1:32:04 14:49  333   345      
    171 John Thompson         1:42:38 16:32  265   343    Y